Zurück zum Katalog

NOAA 16 DEB

AktivPO
NORAD 41292·DEBRIS·🇺🇸 United States

Gestartet Sep 21, 2000 von Vandenberg Space Force Base

Loading…

Nächste Überflüge (nächste 24 Stunden)

TLE

AktuellSource: Space-Track

Epoche: Sep 14, 2026, 15:03 UTC

1 41292U 00055GU  26257.62732336  .00005297  00000-0  11052-2 0  9996
2 41292  98.9572 141.7567 0031405 106.6348 253.8302 14.60076861560881

Verfolge NOAA 16 DEB in Echtzeit mit AllMySat

Download on the App Store